[[{"header":{"parameterUnit":"m.s-1","parameterCategory":1,"la1":30.2991,"la2":30.254,"lo1":-89.0895,"lo2":-89.0444,"dy":0.0017,"dx":0.0017,"nx":28,"ny":28,"refTime":"2024-10-21T09:00:00:Z","depth":0,"parameterNumber":2,"parameterNumberName":"U-component_of_WINDS"},"data":[0,0,0,0,0,0,0,0,0,0,0,0,0,0,0,0,0,0,0,0,0,0,0,0,0,0,0,0,0,0,0,0,0,0,0,0,0,0,0,0,0,0,0,0,0,0,0,0,0,0,0,0,0,0,0,0,0,0,-3.0166,-3.0166,0,-3.0224,-3.0225,-3.0226,-3.0157,-3.0154,-3.0151,-3.0149,-3.0211,-3.0215,-3.0219,0,0,0,0,0,0,0,0,0,0,0,0,0,-2.9995,-2.9998,-3.0165,-3.0166,-3.0167,-3.0224,-3.0225,-3.0226,-3.0157,-3.0154,-3.0151,-3.0148,-3.021,-3.0214,-3.0219,0,0,0,0,0,0,0,0,0,0,0,0,0,-3.0063,-3.0,-3.0165,-3.0139,-3.0138,-3.0224,-3.0225,-3.0226,-3.0158,-3.0154,-3.015,-3.0146,-3.0208,-3.0214,-3.022,-3.0335,0,0,-3.0239,-3.0241,0,0,0,0,0,0,0,0,-3.0059,-3.0069,-3.0143,-3.0141,-3.014,-3.0179,-3.0187,-3.0263,-3.0159,-3.015,-3.0149,-3.0144,-3.0204,-3.021,-3.0229,-3.0338,-3.0341,-3.0239,-3.0243,-3.0245,-3.0247,0,0,0,0,0,0,0,-3.0055,-3.0066,-3.0189,-3.0144,-3.0142,-3.0125,-3.0131,-3.0201,-3.0198,-3.0151,-3.0146,-3.0154,-3.0202,-3.0224,-3.023,-3.0342,-3.0239,-3.0244,-3.0248,-3.025,-3.0549,-3.0553,0,0,0,0,0,0,-3.0053,-3.0063,-3.0187,-3.0191,-3.0089,-3.0132,-3.0138,-3.017,-3.0197,-3.0197,-3.0157,-3.015,-3.0215,-3.0223,-3.0232,-3.037,-3.0245,-3.0251,-3.0255,-3.0545,-3.055,-3.0554,0,0,0,0,0,0,-3.0049,-3.0064,-3.0185,-3.0125,-3.0139,-3.0139,-3.0176,-3.0174,-3.0195,-3.0202,-3.0201,-3.018,-3.0212,-3.0224,-3.031,-3.0372,-3.0254,-3.0259,-3.054,-3.0546,-3.0552,-3.0647,0,0,0,0,0,0,-3.0045,-3.0064,-3.0107,-3.0127,-3.0143,-3.0262,-3.018,-3.0178,-3.0206,-3.0197,-3.0223,-3.0223,-3.021,-3.0302,-3.0316,-3.0378,-3.0264,-3.0534,-3.0543,-3.055,-3.0638,-3.0656,-3.0671,0,0,0,0,0,-3.0039,-3.0132,-3.011,-3.0125,-3.0197,-3.0265,-3.0274,-3.0257,-3.0211,-3.0255,-3.0259,-3.0222,-3.0362,-3.0311,-3.0327,-3.0391,-3.053,-3.054,-3.055,-3.0631,-3.0652,-3.067,0,0,0,0,0,0,-3.012,-3.0134,-3.011,-3.0211,-3.0238,-3.0253,-3.0309,-3.028,-3.032,-3.0311,-3.0288,-3.0294,-3.0387,-3.0397,-3.034,-3.0505,-3.0439,-3.0452,-3.0495,-3.0515,-3.0531,-3.0528,-3.0269,0,0,0,0,0,-3.0149,-3.0203,-3.0212,-3.0301,-3.0315,-3.031,-3.0339,-3.0323,-3.0349,-3.036,-3.0371,-3.0398,-3.0448,-3.0482,-3.0528,-3.0638,-3.0644,-3.0691,-3.0707,-3.072,-3.0733,-3.0793,-3.0815,-3.0586,-3.0586,-3.0586,0,0,-3.0211,-3.0225,-3.0261,-3.0318,-3.0336,-3.0393,-3.032,-3.0382,-3.0425,-3.037,-3.0453,-3.0461,-3.049,-3.059,-3.0634,-3.0602,-3.0796,-3.0732,-3.0743,-3.0748,-3.0805,-3.0827,-3.0846,-3.0593,-3.0591,-3.059,0,0,-3.0353,-3.0369,-3.0445,-3.0465,-3.0494,-3.0489,-3.0508,-3.0528,-3.0532,-3.0614,-3.0574,-3.0624,-3.071,-3.0733,-3.0756,-3.0906,-3.0875,-3.0922,-3.1008,-3.1067,-3.1085,-3.1101,-3.1157,-3.1177,-3.0934,-3.0934,-3.0934,0,-3.0427,-3.0511,-3.0488,-3.0555,-3.0581,-3.0533,-3.0611,-3.0631,-3.0674,-3.0694,-3.0656,-3.0764,-3.078,-3.0885,-3.0922,-3.0941,-3.0962,-3.092,-3.1084,-3.11,-3.1114,-3.1167,-3.1188,-3.094,-3.0939,-3.0939,-3.0938,0,-3.0601,-3.066,-3.0718,-3.076,-3.0793,-3.0865,-3.0854,-3.089,-3.0871,-3.0871,-3.0956,-3.0973,-3.1023,-3.1046,-3.1028,-3.1149,-3.1128,-3.1087,-3.1021,-3.1142,-3.1192,-3.1212,-3.0948,-3.0946,-3.0944,-3.0943,0,0,-3.0798,-3.0826,-3.0849,-3.0868,-3.0895,-3.094,-3.101,-3.1058,-3.109,-3.112,-3.1179,-3.1253,-3.1216,-3.1242,-3.1226,-3.1278,-3.1398,-3.1231,-3.1231,-3.1264,-3.1535,-3.1567,-3.1591,-3.1376,-3.138,-3.1383,-3.1533,0,-3.0943,-3.1064,-3.1045,-3.1162,-3.1217,-3.1171,-3.1232,-3.1256,-3.1257,-3.1304,-3.1305,-3.1359,-3.1304,-3.132,-3.1369,-3.1373,-3.1453,-3.1362,-3.1433,-3.1436,-3.143,-3.1616,-3.1651,-3.1791,-3.1552,-3.1555,-3.1557,0,-3.1128,-3.1166,-3.1288,-3.1308,-3.133,-3.1385,-3.1428,-3.1472,-3.1499,-3.1496,-3.1525,-3.1499,-3.157,-3.15,-3.1597,-3.1536,-3.1563,-3.157,-3.1575,-3.1583,-3.1506,-3.1632,-3.1836,-3.1858,-3.1587,-3.1585,-3.1583,0,-3.1263,-3.1344,-3.1427,-3.1445,-3.1469,-3.1509,-3.1521,-3.1543,-3.1573,-3.1611,-3.163,-3.1675,-3.17,-3.1736,-3.1724,-3.1674,-3.1825,-3.1753,-3.1826,-3.1827,-3.1862,-3.1861,-3.2076,-3.1875,-3.1875,-3.1875,-3.1874,0,-3.1428,-3.1506,-3.1489,-3.1541,-3.1626,-3.1603,-3.1689,-3.1695,-3.1715,-3.1768,-3.173,-3.1781,-3.176,-3.181,-3.18,-3.1884,-3.1894,-3.1895,-3.1893,-3.1901,-3.1901,-3.1921,-3.1912,-3.188,-3.1879,-3.1878,-3.1877,0,-3.1595,-3.1586,-3.1675,-3.169,-3.1696,-3.1758,-3.1772,-3.1821,-3.1818,-3.1886,-3.1901,-3.1898,-3.1954,-3.1944,-3.2006,-3.2,-3.2105,-3.2088,-3.2096,-3.2094,-3.2168,-3.2162,-3.2405,-3.2437,-3.2214,-3.2216,-3.2217,0,-3.1702,-3.1761,-3.1782,-3.1815,-3.183,-3.1882,-3.1913,-3.1893,-3.1926,-3.196,-3.2006,-3.2058,-3.21,-3.2192,-3.2196,-3.2243,-3.2229,-3.2311,-3.2236,-3.2243,-3.2234,-3.2232,-3.2238,-3.2327,-3.233,-3.2332,-3.2333,0,-3.1895,-3.1887,-3.1933,-3.1977,-3.2014,-3.2048,-3.2078,-3.2107,-3.2089,-3.2129,-3.2186,-3.2218,-3.2281,-3.2335,-3.2379,-3.2391,-3.2361,-3.2356,-3.2376,-3.2387,-3.239,-3.2392,-3.214,-3.2352,-3.235,-3.2349,-3.2348,-3.2347,-3.2037,-3.2087,-3.211,-3.2162,-3.2182,-3.2211,-3.2259,-3.2262,-3.2309,-3.2359,-3.2343,-3.2409,-3.2433,-3.249,-3.2507,-3.2558,-3.2528,-3.2556,-3.2564,-3.2572,-3.2582,-3.2379,-3.2566,-3.2565,-3.2565,-3.2564,-3.2564,0,-3.223,-3.2242,-3.229,-3.2333,-3.2374,-3.2339,-3.2371,-3.2408,-3.2466,-3.2491,-3.2532,-3.2598,-3.2649,-3.2656,-3.2705,-3.2745,-3.2732,-3.2759,-3.2757,-3.2761,-3.2605,-3.2584,-3.2769,-3.2769,-3.2768,-3.2768,-3.2768,-3.2768,-3.2335,-3.2419,-3.2414,-3.2508,-3.2519,-3.2583,-3.2604,-3.2631,-3.2651,-3.2726,-3.2769,-3.2773,-3.2791,-3.2841,-3.2887,-3.2888,-3.2909,-3.2942,-3.2937,-3.2792,-3.2772,-3.2753,-3.2733,-3.2946,-3.2946,-3.3089,-3.3091,-3.3092]},{"header":{"parameterUnit":"m.s-1","parameterCategory":1,"la1":30.2991,"la2":30.254,"lo1":-89.0895,"lo2":-89.0444,"dy":0.0017,"dx":0.0017,"nx":28,"ny":28,"refTime":"2024-10-21T09:00:00:Z","depth":0,"parameterNumber":3,"parameterNumberName":"V-component_of_WINDS"},"data":[0,0,0,0,0,0,0,0,0,0,0,0,0,0,0,0,0,0,0,0,0,0,0,0,0,0,0,0,0,0,0,0,0,0,0,0,0,0,0,0,0,0,0,0,0,0,0,0,0,0,0,0,0,0,0,0,0,0,-3.173,-3.173,0,-3.1733,-3.1733,-3.1733,-3.1684,-3.1682,-3.1681,-3.168,-3.1683,-3.1684,-3.1685,0,0,0,0,0,0,0,0,0,0,0,0,0,-3.168,-3.1681,-3.173,-3.173,-3.173,-3.1733,-3.1733,-3.1733,-3.1684,-3.1682,-3.1681,-3.1679,-3.1682,-3.1684,-3.1685,0,0,0,0,0,0,0,0,0,0,0,0,0,-3.1694,-3.1682,-3.173,-3.1706,-3.1704,-3.1733,-3.1733,-3.1733,-3.1684,-3.1682,-3.168,-3.1678,-3.1682,-3.1684,-3.1686,-3.1738,0,0,-3.1692,-3.1692,0,0,0,0,0,0,0,0,-3.1693,-3.1696,-3.1709,-3.1707,-3.1705,-3.1706,-3.1716,-3.1735,-3.1685,-3.1692,-3.168,-3.1677,-3.1692,-3.1693,-3.1698,-3.1738,-3.1738,-3.1692,-3.1693,-3.1694,-3.1694,0,0,0,0,0,0,0,-3.1693,-3.1696,-3.1731,-3.1709,-3.1707,-3.1694,-3.1694,-3.172,-3.1703,-3.1691,-3.1687,-3.1688,-3.169,-3.1696,-3.1698,-3.1738,-3.1692,-3.1693,-3.1695,-3.1695,-3.182,-3.1822,0,0,0,0,0,0,-3.1695,-3.1695,-3.1731,-3.1731,-3.1694,-3.1697,-3.1697,-3.1708,-3.1703,-3.17,-3.169,-3.1686,-3.1694,-3.1695,-3.1698,-3.1758,-3.1694,-3.1696,-3.1697,-3.1818,-3.182,-3.1823,0,0,0,0,0,0,-3.1694,-3.1699,-3.1731,-3.1712,-3.1715,-3.17,-3.1713,-3.1709,-3.1714,-3.1702,-3.1699,-3.1699,-3.1692,-3.1695,-3.1728,-3.1757,-3.1696,-3.1698,-3.1815,-3.1819,-3.1821,-3.1879,0,0,0,0,0,0,-3.1693,-3.1699,-3.1719,-3.1713,-3.1716,-3.1762,-3.1714,-3.171,-3.1718,-3.1713,-3.1709,-3.1707,-3.1691,-3.1725,-3.173,-3.1759,-3.17,-3.1813,-3.1817,-3.182,-3.1874,-3.1884,-3.1892,0,0,0,0,0,-3.1691,-3.1735,-3.172,-3.1724,-3.1741,-3.1763,-3.1765,-3.1746,-3.1721,-3.174,-3.1732,-3.1707,-3.1753,-3.1729,-3.1734,-3.1764,-3.1811,-3.1816,-3.182,-3.187,-3.1882,-3.1891,0,0,0,0,0,0,-3.1744,-3.1734,-3.1717,-3.176,-3.1763,-3.1755,-3.1779,-3.1759,-3.1769,-3.1764,-3.1739,-3.1739,-3.1776,-3.1773,-3.1746,-3.1813,-3.1777,-3.1783,-3.1814,-3.1825,-3.1833,-3.1833,-3.1701,0,0,0,0,0,-3.1761,-3.178,-3.177,-3.1809,-3.1811,-3.1795,-3.1804,-3.1789,-3.1791,-3.1792,-3.1786,-3.1789,-3.1803,-3.1814,-3.1827,-3.1874,-3.1872,-3.1896,-3.1905,-3.1912,-3.1918,-3.1942,-3.1952,-3.1838,-3.1838,-3.1838,0,0,-3.1796,-3.1792,-3.1806,-3.1819,-3.182,-3.184,-3.1796,-3.182,-3.1834,-3.1795,-3.1826,-3.1822,-3.1823,-3.1863,-3.188,-3.1862,-3.1949,-3.1918,-3.1924,-3.1926,-3.1948,-3.1958,-3.1968,-3.1842,-3.1841,-3.184,0,0,-3.1869,-3.1869,-3.1901,-3.1902,-3.1903,-3.1892,-3.19,-3.1895,-3.1891,-3.1921,-3.1892,-3.1909,-3.1935,-3.1937,-3.1942,-3.2015,-3.1992,-3.202,-3.2065,-3.2089,-3.2098,-3.2105,-3.2131,-3.2141,-3.2025,-3.2026,-3.2026,0,-3.1912,-3.1942,-3.192,-3.1945,-3.1951,-3.1917,-3.1949,-3.1951,-3.1956,-3.1961,-3.1941,-3.1973,-3.1971,-3.2011,-3.2028,-3.2033,-3.2041,-3.202,-3.2098,-3.2106,-3.2113,-3.2137,-3.2147,-3.2029,-3.2029,-3.2028,-3.2028,0,-3.1994,-3.2015,-3.204,-3.2046,-3.2055,-3.2084,-3.2066,-3.2078,-3.2062,-3.2053,-3.2084,-3.2081,-3.2092,-3.2101,-3.2085,-3.2138,-3.2126,-3.2102,-3.2066,-3.2127,-3.215,-3.2159,-3.2034,-3.2032,-3.2031,-3.2031,0,0,-3.2102,-3.2095,-3.2105,-3.2106,-3.2105,-3.212,-3.2146,-3.2158,-3.2168,-3.2173,-3.2194,-3.2217,-3.2194,-3.2199,-3.2184,-3.2204,-3.2262,-3.2178,-3.2177,-3.2193,-3.2319,-3.2337,-3.2348,-3.2247,-3.2248,-3.225,-3.2319,0,-3.2173,-3.2218,-3.2199,-3.2245,-3.2263,-3.2231,-3.2253,-3.2255,-3.2247,-3.2261,-3.2252,-3.2268,-3.2238,-3.2241,-3.226,-3.2251,-3.2287,-3.2246,-3.2266,-3.2267,-3.2267,-3.236,-3.2379,-3.2445,-3.2328,-3.2329,-3.233,0,-3.2262,-3.227,-3.2318,-3.2313,-3.232,-3.2341,-3.2349,-3.2363,-3.2363,-3.2356,-3.2362,-3.2341,-3.2366,-3.2329,-3.2363,-3.2336,-3.2343,-3.234,-3.2342,-3.2343,-3.2302,-3.2363,-3.2465,-3.2475,-3.2344,-3.2343,-3.2342,0,-3.2335,-3.2358,-3.239,-3.2392,-3.2387,-3.2402,-3.24,-3.2399,-3.2406,-3.2413,-3.2418,-3.2428,-3.2434,-3.2442,-3.2425,-3.24,-3.2461,-3.2423,-3.2455,-3.2456,-3.2469,-3.2469,-3.2574,-3.2475,-3.2474,-3.2474,-3.2474,0,-3.2416,-3.2447,-3.2422,-3.2442,-3.2475,-3.2452,-3.2486,-3.248,-3.2479,-3.2497,-3.2469,-3.2486,-3.2462,-3.2477,-3.2463,-3.2493,-3.2496,-3.249,-3.2486,-3.2493,-3.2493,-3.2497,-3.2492,-3.2477,-3.2476,-3.2476,-3.2475,0,-3.2504,-3.2488,-3.2521,-3.2512,-3.2511,-3.2536,-3.2528,-3.2546,-3.2536,-3.2558,-3.2562,-3.2546,-3.2562,-3.2545,-3.256,-3.2551,-3.2591,-3.258,-3.2591,-3.2588,-3.2621,-3.2618,-3.2731,-3.2745,-3.2638,-3.2639,-3.264,0,-3.2557,-3.2579,-3.2573,-3.2583,-3.2583,-3.2599,-3.2606,-3.2585,-3.2594,-3.2595,-3.2613,-3.2626,-3.2635,-3.2662,-3.2652,-3.2663,-3.2652,-3.2691,-3.2653,-3.2659,-3.2652,-3.2651,-3.2653,-3.2699,-3.27,-3.2701,-3.2702,0,-3.2652,-3.2643,-3.2655,-3.2664,-3.2674,-3.268,-3.2684,-3.2694,-3.2671,-3.2682,-3.2698,-3.2705,-3.272,-3.2733,-3.2741,-3.2739,-3.2717,-3.2714,-3.2722,-3.2728,-3.2733,-3.2731,-3.2611,-3.2711,-3.271,-3.271,-3.2709,-3.2709,-3.2723,-3.2742,-3.274,-3.2754,-3.2755,-3.2759,-3.2775,-3.2766,-3.2779,-3.2789,-3.2775,-3.2794,-3.2793,-3.2802,-3.2802,-3.2816,-3.28,-3.2812,-3.2814,-3.2818,-3.2822,-3.2731,-3.2818,-3.2818,-3.2817,-3.2817,-3.2817,0,-3.2817,-3.2814,-3.2827,-3.2833,-3.2844,-3.2822,-3.2825,-3.2835,-3.2853,-3.2854,-3.2863,-3.2881,-3.2893,-3.2884,-3.2895,-3.2908,-3.2898,-3.2912,-3.291,-3.291,-3.2837,-3.2829,-3.2919,-3.2919,-3.2919,-3.2919,-3.2919,-3.2919,-3.2867,-3.2896,-3.2887,-3.2916,-3.2913,-3.2931,-3.2935,-3.2939,-3.2939,-3.296,-3.297,-3.2964,-3.2961,-3.2971,-3.2981,-3.2978,-3.2983,-3.3,-3.2994,-3.2925,-3.2915,-3.2906,-3.2898,-3.3002,-3.3002,-3.3065,-3.3066,-3.3066]}]]